User: anonymous   Login
Location: Alfortville
(48.8058°N, 2.4204°E)
Time: 18:20:05
(UTC+00:00)
Language:

Cosmos 1825 Rocket - Orbit

View from above orbital plane
View from above orbital plane
View from above satellite
View from above satellite

Ground track
Ground track

The orbit data is extracted from the following two-line orbital elements,

1 17567U 87024B   22025.45718463  .00000138  00000-0  13757-4 0  9995
2 17567  82.5271  63.3624 0018899 187.9651 172.1267 14.83852396886062
Epoch (UTC): 25 January 2022 10:58:20
Eccentricity: 0.0018899
inclination: 82.5271°
perigee height: 604 km
apogee height: 630 km
right ascension of ascending node: 63.3624°
argument of perigee: 187.9651°
revolutions per day: 14.83852396
mean anomaly at epoch: 172.1267°
orbit number at epoch: 88606

The dashed part of the orbit path shows where the satellite is in the earth's shadow,  

DLR